Regional Weather Roundup
Issued by NWS

Home | Current Version | Previous Version | Text Only | Print | Product List | Glossary Off
Versions: 1 2 3 4 5 6 7 8 9 10 11 12 13 14 15 16 17 18 19 20 21 22 23 24 25 26 27 28 29 30 31 32 33 34 35 36 37 38 39 40 41 42 43 44 45 46 47 48 49 50

000
ASUS43 KBIS 232310
RWRND

NORTH DAKOTA REGIONAL WEATHER ROUNDUP
NATIONAL WEATHER SERVICE BISMARCK ND
600 PM CDT SAT JUL 23 2016

NOTE: "FAIR" INDICATES FEW OR NO CLOUDS BELOW 12,000 FEET WITH NO
SIGNIFICANT WEATHER AND/OR OBSTRUCTIONS TO VISIBILITY.


NDZ001>003-009>011-017-240000-
NORTHWEST NORTH DAKOTA

CITY           SKY/WX    TMP DP  RH WIND       PRES   REMARKS
WILLISTON      MOSUNNY   82  53  36 NW20G31   29.84R
MINOT          SUNNY     85  52  32 W21G28    29.76S
MINOT AFB      SUNNY     80  56  43 W17       29.75S
$$

NDZ018>021-031>035-040>046-240000-
SOUTHWEST NORTH DAKOTA

CITY           SKY/WX    TMP DP  RH WIND       PRES   REMARKS
BISMARCK       SUNNY     84  55  36 NW15G24   29.81S
DICKINSON      SUNNY     80  46  30 NW20      29.87R
GARRISON         N/A     80  55  42 W16G23    29.80S
HETTINGER ARPT SUNNY     87  41  19 W24G35    29.91S
$$

NDZ004>008-012>016-024-026-027-054-240000-
NORTHEAST NORTH DAKOTA

CITY           SKY/WX    TMP DP  RH WIND       PRES   REMARKS
GRAND FORKS    CLOUDY    73  68  84 NW3       29.73F
GRND FRKS AFB  CLOUDY    70  68  94 N3        29.74S
DEVILS LAKE    CLOUDY    75  68  78 S7        29.76S
$$

NDZ022-023-025-028>030-036>039-047>053-240000-
SOUTHEAST NORTH DAKOTA

CITY           SKY/WX    TMP DP  RH WIND       PRES   REMARKS
FARGO          CLOUDY    83  72  69 SW12      29.69S
JAMESTOWN      CLOUDY    77  71  82 SW6       29.75F
$$





USA.gov is the U.S. government's official web portal to all federal, state and local government web resources and services.